Flag for U.S.A. Weather past 2 weeks in Long Beach, California, U.S.A.

Now
61 °F

Overcast.


Feels Like: 61 °F
Forecast: 56 / 70 °F
Wind: No wind

Location: Long Beach Airport

Current Time: Apr 1, 2015 at 1:46:55 AM

Latest Report: Apr 1, 2015 at 1:02 AM


Visibility: 10 mi

Pressure: 29.99 "Hg

Humidity: 81%

Dew point: 55 °F

Location of Long BeachLocation

Historic Weather in Long Beach — Graph

°F

Long Beach temperature yesterday

Maximum temperature yesterday: 69 °F (at 2:53 PM)
Minimum temperature yesterday: 57 °F (at 1:53 AM)
Average temperature yesterday: 62 °F

Past Weeks' High & Low Weather Summary

 TemperatureHumidityPressure
High93 °F (Mar 26, 12:53 PM)93% (Mar 28, 3:53 AM)30.19 "Hg (Mar 28, 3:53 AM)
Low57 °F (Mar 24, 4:53 AM)10% (Mar 26, 12:53 PM)29.89 "Hg (Mar 17, 5:53 PM)
Average66 °F68%30.03 "Hg
* Reported Mar 17 12:53 AM — Apr 1 12:53 AM, Long Beach, Weather by CustomWeather, © 2015

Note: Actual official high and low records may vary slightly from our data, if they occured in-between our weather recording intervals... More about our weather records

Advertising

Long Beach weather history for previous 24 hours

 ConditionsComfort  
Time TempWeatherWind HumidityBarometerVisibility
12:53 AM
Wed, Apr 1
61 °FPassing clouds.No wind81%29.98 "Hg10 mi
11:53 PM
Tue, Mar 31
60 °FClear.5 mph83%29.97 "Hg10 mi
10:53 PM61 °FClear.5 mph83%29.97 "Hg9 mi
9:53 PM62 °FClear.3 mph80%29.98 "Hg10 mi
8:53 PM61 °FClear.5 mph81%29.97 "Hg10 mi
7:53 PM62 °FSunny.6 mph78%29.95 "Hg10 mi
6:53 PM63 °FSunny.9 mph75%29.93 "Hg10 mi
5:53 PM65 °FSunny.9 mph70%29.94 "Hg10 mi
4:53 PM67 °FSunny.8 mph66%29.95 "Hg10 mi
3:53 PM68 °FSunny.7 mph63%29.96 "Hg10 mi
2:53 PM69 °FSunny.8 mph61%29.97 "Hg10 mi
1:53 PM68 °FSunny.9 mph63%30.00 "Hg10 mi
12:53 PM68 °FSunny.10 mph63%30.01 "Hg10 mi
11:53 AM68 °FSunny.6 mph61%30.02 "Hg10 mi
10:53 AM66 °FSunny.3 mph65%30.03 "Hg10 mi
9:53 AM63 °FScattered clouds.3 mph73%30.02 "Hg7 mi
8:53 AM61 °FOvercast.5 mph78%30.01 "Hg6 mi
7:53 AM60 °FOvercast.3 mph80%30.00 "Hg5 mi
6:53 AM59 °FOvercast.3 mph84%29.99 "Hg6 mi
5:53 AM58 °FFog.5 mph87%29.98 "Hg5 mi
4:53 AM58 °FFog.No wind90%29.97 "Hg4 mi
3:53 AM59 °FFog.5 mph90%29.98 "Hg5 mi
2:53 AM59 °FFog.No wind90%29.99 "Hg4 mi
1:53 AM57 °FFog.No wind90%30.00 "Hg6 mi
Weather by CustomWeather, © 2015

See weather overviewHow to use our weather pages